Regional Weather Roundup
Issued by NWS Upton, NY

Current Version | Previous Version | Text Only | Print | Product List | Glossary On
Versions: 1 2 3 4 5 6 7 8 9 10 11 12 13 14 15 16 17 18 19 20 21 22 23 24 25 26 27 28
000
ASUS41 KOKX 241109
RWROKX

REGIONAL WEATHER ROUNDUP
NATIONAL WEATHER SERVICE NEW YORK NY
700 AM EDT MON JUL 24 2017

NOTE: "FAIR" INDICATES FEW OR NO CLOUDS BELOW 12,000 FEET WITH NO
SIGNIFICANT WEATHER AND/OR OBSTRUCTIONS TO VISIBILITY.

NYZ071-072-176-178-NJZ106-104-241200-
NEW YORK CITY METRO AREA

CITY           SKY/WX    TMP DP  RH WIND       PRES   REMARKS
Central Park   LGT RAIN  69  67  93 VRB7      29.79R FOG
Bronx Bot Gard   N/A     66  64  94 E3        29.78R
LaGuardia APRT RAIN      70  68  93 E8        29.77R FOG
Kennedy INTL   LGT RAIN  70  70 100 E9        29.77S
Breezy Point     N/A     68 N/A N/A E15G23      N/A
Newark/Liberty CLOUDY    70  68  93 NE9       29.76S
Teterboro      CLOUDY    69  67  93 VRB6      29.76S FOG
$$

NYZ177-179-078>081-241200-
LONG ISLAND NEW YORK

CITY           SKY/WX    TMP DP  RH WIND       PRES   REMARKS
Jones Beach      N/A     70 N/A N/A E14G24      N/A
Matinecock PT    N/A     68 N/A N/A E20         N/A
Farmingdale    LGT RAIN  68  66  93 E9        29.77F
MacArthur/ISP  LGT RAIN  68  68 100 E13       29.77F FOG
Shirley        RAIN      69  68  96 VRB7      29.79F FOG
Mt Sinai Harb    N/A     66 N/A N/A E12G17      N/A
Westhampton    RAIN      68  66  93 E12G20      N/A  FOG
East Hampton   LGT RAIN  65  64  94 E8        29.83R
Montauk          N/A     66  64  93 E9G18     29.84F
$$

NYZ052-065-067-241200-
HUDSON VALLEY

CITY           SKY/WX    TMP DP  RH WIND       PRES   REMARKS
White Plains   NOT AVBL
Larchmont Harb   N/A     68 N/A N/A NE26        N/A
Croton O-T Hud   N/A     66 N/A N/A NE1         N/A
Newburgh       RAIN      63  63 100 E12G18    29.83S FOG
Montgomery     RAIN      63  61  93 NE14      29.81F FOG
Poughkeepsie   LGT RAIN  63  60  90 N6        29.83R
Albany         LGT RAIN  61  57  87 SE6       29.88R FOG
$$

NJZ001-105-106-008-010-013-015-019>022-104-241200-
NEW JERSEY

CITY           SKY/WX    TMP DP  RH WIND       PRES   REMARKS
Newark/Liberty CLOUDY    70  68  93 NE9       29.76S
Teterboro      CLOUDY    69  67  93 VRB6      29.76S FOG
Caldwell       HVY RAIN  68  32  26 E12       29.77S
Somerville     CLOUDY    70  68  93 MISG      29.74R
Linden         CLOUDY    70  67  90 E3        29.76S
Perth Amboy      N/A     70 N/A N/A E15G22      N/A
Sussex         LGT RAIN  65  65 100 NE12      29.78R
Andover          N/A     67  65  93 CALM      29.76F
Trenton        CLOUDY    71  70  96 E7        29.74R
Millville      CLOUDY    72  72 100 CALM      29.75R
Atlantic City  CLOUDY    73  72  96 S5        29.75R
Wrightstown    PTSUNNY   71  70  98 SE5       29.72R
Toms River     CLOUDY    71  70  96 SE3       29.74F
Belmar         CLOUDY    71  70  96 SE5       29.75F
$$

PAZ047>061-062-071-241200-
EASTERN PENNSYLVANIA

CITY           SKY/WX    TMP DP  RH WIND       PRES   REMARKS
Philadelphia   CLOUDY    73  71  93 E5        29.74R
Allentown      CLOUDY    70  66  87 CALM      29.74R
Scranton       HVY RAIN  66  65  96 VRB7      29.79F FOG
$$

CTZ002-004>006-009-010-012-RIZ004-006-007-MAZ004-011-015-241200-
SOUTHERN NEW ENGLAND
 IN CT

CITY           SKY/WX    TMP DP  RH WIND       PRES   REMARKS
Bradley INTL   LGT RAIN  62  59  90 N6        29.89R
Hartford       HVY RAIN  63  56  78 E3        29.88R
Danbury        LGT RAIN  63  61  93 E9        29.84R
Wtrbury/Oxford LGT RAIN  61  54  77 E9        29.85S FOG
Bridgeport     LGT RAIN  64  61  90 NE16      29.82F FOG
Meriden        HVY RAIN  60  57  89 CALM      29.87R FOG
New Haven      LGT RAIN  62  59  90 N7        29.85R FOG
Chester        LGT RAIN  59  57  94 E6        29.86R
Groton         LGT RAIN  61  56  83 E9        29.85R
Wilimantic     LGT RAIN  64  56  75 E6        29.87F

 IN RI

CITY           SKY/WX    TMP DP  RH WIND       PRES   REMARKS
Providence     LGT RAIN  63  56  78 NE6       29.90F
Block Island   LGT RAIN  63  60  90 E17G29    29.84F
Westerly       LGT RAIN  63  57  81 E14G22    29.86F
 IN MA

CITY           SKY/WX    TMP DP  RH WIND       PRES   REMARKS
Boston         LGT RAIN  64  60  87 E9        29.94R
Worcester      LGT RAIN  59  51  75 E7        29.94R
Westfield      LGT RAIN  61  58  90 N7        29.90R
Provincetown   LGT RAIN  64  52  64 E10       29.94S
Nantucket      CLOUDY    63  51  65 E15       29.90F
$$

ANZ330-335-338-340-345-350-353-355-241200-
COASTAL MARINE OBSERVATIONS


STATION/POSITION TIME  SKY/WX   TEMP    WIND        PRES    VSBY  WAVE
                                AIR SEA DIR/SP/G                  HT/PER
                 (UTC)          (F)     (DEG/KT/KT) (MB)    (MI)  (FT/S)
NY HARB ENTRANCE 0950            72 73  100/ 16/ 19 1006.8          5/ 5
20 S FIRE ISLAND 1050            74 76  110/ 19/ 25 1006.0          6/ 5
GREAT SOUTH BAY  1030            71 80   70/ 17/ 23   N/A
23 SSW MONTAUK P 0950            69 73              1008.7          6/ 5
15 E BARNEGAT LI 1030               75                N/A           5/ 6
HUDSON CANYON    0950            72 77   50/  6/  8 1007.1          5/ 5
KINGS POINT      1030            68 72  110/  5/  7 1008.1
EXECUTION ROCKS  1045            69      90/ 16/ 21   N/A
CENTRAL LI SOUND 1030            67      90/ 21/ 25   N/A           3
EASTERN LI SOUND NOT AVBL
ROBBINS REEF     1030                    80/ 12/ 14 1008.4
$$


>>>>>>>>>>>>>>>>>>>>>>>>>>>> KEY <<<<<<<<<<<<<<<<<<<<<<<<<<<
>                                                          <
>     SKY/WX - Sky Condition/Present Weather               <
>     TMP    - Temperature in Fahrenheit                   <
>     DP     - Dew Point in Fahrenheit                     <
>     RH     - Relative Humidity in Percent                <
>     WIND   - Direction (from) and Speed in MPH           <
>     PRES   - Mean Sea Level Pressure (inches of Hg)      <
>     WCI    - Wind Chill Index                            <
>     VSB    - VISIBILITY IN MILES                         <
>     HX     - HEAT INDEX                                  <
>     TC     - TEMPERATURE IN CELSIUS                      <
>     VRB    - VARIABLE WIND DIRECTION                     <
>                                                          <
>>>>>>>>>>>>>>>>>>>>>>>>>>>> KEY <<<<<<<<<<<<<<<<<<<<<<<<<<<




USA.gov is the U.S. government's official web portal to all federal, state and local government web resources and services.